Regional Weather Roundup
Issued by NWS Newport/Morehead, NC

Home | Current Version | Previous Version | Text Only | Print | Product List | Glossary On
Versions: 1 2 3 4 5 6 7 8 9 10 11 12 13 14 15 16 17 18 19 20 21 22 23 24 25 26 27 28 29 30 31 32 33 34 35 36 37 38 39 40 41 42 43 44 45 46 47 48 49 50
946
ASUS42 KMHX 170925
RWRMHX
WEATHER ROUNDUP FOR EASTERN NORTH CAROLINA
NATIONAL WEATHER SERVICE NEWPORT/MOREHEAD CITY NC
400 AM EST WED JAN 17 2018

NOTE: "FAIR" INDICATES FEW OR NO CLOUDS BELOW 12,000 FEET
WITH NO SIGNIFICANT WEATHER AND/OR OBSTRUCTIONS TO VISIBILITY

NCZ015>017-031-032-045>047-102-103-171000-
NORTH COAST

CITY           SKY/WX    TMP DP  RH WIND       PRES   REMARKS
EDENTON        NOT AVBL
ELIZABETH CITY FAIR      31  31 100 SE5       30.29F
KITTY HAWK     FAIR     N/A N/A N/A CALM      30.27S
MANTEO         FAIR      33  32  99 N5        30.28F

$$

NCZ045>047-081-094-103-104-171000-
CENTRAL COAST

CITY           SKY/WX    TMP DP  RH WIND       PRES   REMARKS
FRISCO         FAIR      37  37 100 VRB5      30.27S

$$

NCZ095-097-098-100-101-171000-
SOUTHERN COAST

CITY           SKY/WX    TMP DP  RH WIND       PRES   REMARKS
BEAUFORT       FAIR      32  31  96 CALM      30.28S
CEDAR ISLAND   NOT AVBL
JACKSONVILLE   FAIR      29  28  96 CALM      30.27F
PINEY ISLAND   NOT AVBL
WILMINGTON     FAIR      30  29  96 CALM      30.26F


$$

NCZ011>013-027>030-043-044-078>080-089-090>093-098-171000-
COASTAL PLAIN

CITY           SKY/WX    TMP DP  RH WIND       PRES   REMARKS
AHOSKIE        FAIR      28  28  97 CALM      30.28F
CLINTON        FAIR      31  29  94 CALM      30.27F
ELIZABETHTOWN  NOT AVBL
GOLDSBORO      FAIR      30  26  84 CALM      30.25F
GREENVILLE     FAIR      30  28  93 CALM      30.29R
HAVELOCK       NOT AVBL
KENANSVILLE    FAIR      28  27  93 CALM      30.27S
KINSTON        FAIR      30  28  94 CALM      30.28S
NEW BERN       FAIR      28  27  96 CALM      30.28F
RICHLANDS      FAIR      28  27  96 CALM      30.27F
ROCKY MOUNT    FAIR      30  28  92 CALM      30.28S
WASHINGTON     FAIR      30  29  95 CALM      30.28F
WHITEVILLE     FAIR      32  30  92 CALM      30.26S

$$

AMZ130-135-150-152-154-156-158-170-250-252-270-ANZ085-086-088-633-658-670-171000-
MARINE OBSERVATIONS

STATION/POSITION TIME  TEMP    WIND        PRES    WAVE   SWELL
                       AIR SEA DIR/SP/G            HT/PER HT/PER
                 (UTC) (F)     (DEG/KT/KT) (MB)    (FT/S) (FT/S)
CHESAPEAKE LIGHT NOT AVBL
64 E VA BEACH    0850   45 56  310/ 16/ 19 1025.2    6/11   5/11
DUCK             0900   35 39  280/  5/  5 1025.1
2 E DUCK         0900      38                N/A     4/12   3/12
OREGON INLET     0900   35 42  310/  7/  8 1025.2
13E OREGON INLT  0848      45                N/A     7/12   7/12
HATTERAS CG      0900   39 47  360/  7/  9 1024.7
DIAMOND BUOY     0910   50 69  340/ 10/ 16 1025.1
CAPE LOOKOUT     0900          350/  3/  3 1025.0
BEAUFORT LAB     0900   38 45   10/  2/  3 1025.1
30 SE NEW RVR IN 0808   52 58   10/  2/  4 1025.1
30 SE NEW RVR IN 0900      58                N/A     4/10   2/11
27 SE WRIGHTSVLE 0808   53 62   20/  2/  6 1024.8
5 SE WRIGHTSVLE  0808   45 46  350/  2/  6 1024.8
225 S CAPE HAT   0850   68 70  110/ 12/ 14 1021.8    8/12   7/12
41 SE CHARLESTON 0910   58 70   CALM  /  2 1023.7

$$




USA.gov is the U.S. government's official web portal to all federal, state and local government web resources and services.